2023/01/25 00:00:00,34.4,-5.7
2023/01/25 00:10:00,35.1,-5.5
2023/01/25 00:20:00,35.4,-5.5
2023/01/25 00:30:00,35.5,-5.6
2023/01/25 00:40:00,35.7,-5.7
2023/01/25 00:50:00,35.7,-5.7
2023/01/25 01:00:00,35.7,-6.0
2023/01/25 01:10:00,36.0,-5.8
2023/01/25 01:20:00,36.3,-5.9
2023/01/25 01:30:00,36.7,-5.8
2023/01/25 01:40:00,37.1,-5.7
2023/01/25 01:50:00,37.3,-5.7
2023/01/25 02:00:00,37.5,-5.7
2023/01/25 02:10:00,37.5,-5.7
2023/01/25 02:20:00,37.8,-4.9
2023/01/25 02:30:00,37.8,-5.6
2023/01/25 02:40:00,38.3,-5.8
2023/01/25 02:50:00,38.6,-5.2
2023/01/25 03:00:00,38.8,-5.9
2023/01/25 03:10:00,38.8,-5.5
2023/01/25 03:20:00,38.6,-5.6
2023/01/25 03:30:00,38.8,-5.9
2023/01/25 03:40:00,38.9,-6.0
2023/01/25 03:50:00,39.0,-5.7
2023/01/25 04:00:00,38.7,-5.8
2023/01/25 04:10:00,38.6,-5.8
2023/01/25 04:20:00,38.6,-5.6
2023/01/25 04:30:00,38.4,-5.9
2023/01/25 04:40:00,38.4,-6.0
2023/01/25 04:50:00,38.3,-5.8
2023/01/25 05:00:00,38.2,-5.7
2023/01/25 05:10:00,38.4,-5.8
2023/01/25 05:20:00,38.5,-5.6
2023/01/25 05:30:00,38.5,-5.7
2023/01/25 05:40:00,39.0,-5.4
2023/01/25 05:50:00,39.3,-5.4
2023/01/25 06:00:00,39.4,-5.6
2023/01/25 06:10:00,39.5,-5.6
2023/01/25 06:20:00,39.8,-5.8
2023/01/25 06:30:00,39.9,-5.7
2023/01/25 06:40:00,39.8,-5.8
2023/01/25 06:50:00,39.6,-5.7
2023/01/25 07:00:00,39.7,-5.7
2023/01/25 07:10:00,40.2,-5.6
2023/01/25 07:20:00,40.7,-5.2
2023/01/25 07:30:00,41.1,-5.6
2023/01/25 07:40:00,41.7,-5.6
2023/01/25 07:50:00,42.5,-5.3
2023/01/25 08:00:00,43.4,-5.1
2023/01/25 08:10:00,43.7,-5.1
2023/01/25 08:20:00,44.4,-4.3
2023/01/25 08:30:00,44.5,-4.5
2023/01/25 08:40:00,44.4,-4.8
2023/01/25 08:50:00,44.6,-4.3
2023/01/25 09:00:00,44.6,-3.9
2023/01/25 09:10:00,44.8,-3.9
2023/01/25 09:20:00,44.6,-3.5
2023/01/25 09:30:00,44.5,-3.5
2023/01/25 09:40:00,44.8,-4.2
2023/01/25 09:50:00,44.8, 0.3
2023/01/25 10:00:00,44.4,-2.0
2023/01/25 10:10:00,44.5,-2.9
2023/01/25 10:20:00,44.6,-2.9
2023/01/25 10:30:00,44.8,-3.2
2023/01/25 10:40:00,45.0,-2.9
2023/01/25 10:50:00,44.7,-2.4
2023/01/25 11:00:00,45.0,-3.0
2023/01/25 11:10:00,45.0,-1.9
2023/01/25 11:20:00,45.1,-2.9
2023/01/25 11:30:00,45.4,-2.4
2023/01/25 11:40:00,45.4,-2.1
2023/01/25 11:50:00,45.3,-1.9
2023/01/25 12:00:00,45.4,-1.6
2023/01/25 12:10:00,45.1,-0.5
2023/01/25 12:20:00,45.5,-2.2
2023/01/25 12:30:00,46.1,-3.0
2023/01/25 12:40:00,47.0,-2.9
2023/01/25 12:50:00,47.7,-3.2
2023/01/25 13:00:00,47.8,-1.7
2023/01/25 13:10:00,47.5,-0.3
2023/01/25 13:20:00,47.1,-0.5
2023/01/25 13:30:00,46.9, 1.6
2023/01/25 13:40:00,47.1,-0.7
2023/01/25 13:50:00,47.6,-1.8
2023/01/25 14:00:00,47.8,-1.6
2023/01/25 14:10:00,47.7,-0.3
2023/01/25 14:20:00,47.7,-0.3
2023/01/25 14:30:00,47.4,-1.1
2023/01/25 14:40:00,47.4,-1.2
2023/01/25 14:50:00,47.7,-1.1
2023/01/25 15:00:00,47.4,-1.8
2023/01/25 15:10:00,47.3,-2.2
2023/01/25 15:20:00,47.1,-0.4
2023/01/25 15:30:00,47.1,-1.8
2023/01/25 15:40:00,47.3,-1.7
2023/01/25 15:50:00,47.2,-2.4
2023/01/25 16:00:00,47.6,-2.8
2023/01/25 16:10:00,49.1,-2.8
2023/01/25 16:20:00,50.9,-2.7
2023/01/25 16:30:00,51.2,-2.7
2023/01/25 16:40:00,51.1,-2.9
2023/01/25 16:50:00,51.4,-3.2
2023/01/25 17:00:00,52.0,-3.0
2023/01/25 17:10:00,52.5,-3.4
2023/01/25 17:20:00,52.6,-3.7
2023/01/25 17:30:00,52.4,-3.5
2023/01/25 17:40:00,52.1,-3.6
2023/01/25 17:50:00,52.3,-3.7
2023/01/25 18:00:00,52.6,-3.7
2023/01/25 18:10:00,52.8,-3.4
2023/01/25 18:20:00,52.5,-3.8
2023/01/25 18:30:00,52.6,-3.5
2023/01/25 18:40:00,52.6,-3.3
2023/01/25 18:50:00,52.5,-3.7
2023/01/25 19:00:00,52.2,-3.6
2023/01/25 19:10:00,52.2,-3.5
2023/01/25 19:20:00,52.2,-3.5
2023/01/25 19:30:00,52.2,-3.7
2023/01/25 19:40:00,52.2,-3.8
2023/01/25 19:50:00,52.4,-3.6
2023/01/25 20:00:00,52.9,-3.5
2023/01/25 20:10:00,53.3,-3.5
2023/01/25 20:20:00,53.5,-3.4
2023/01/25 20:30:00,53.4,-3.8
2023/01/25 20:40:00,53.0,-3.5
2023/01/25 20:50:00,52.9,-3.9
2023/01/25 21:00:00,52.7,-3.2
2023/01/25 21:10:00,52.5,-3.9
2023/01/25 21:20:00,52.7,-3.8
2023/01/25 21:30:00,52.4,-3.6
2023/01/25 21:40:00,52.4,-4.0
2023/01/25 21:50:00,52.6,-4.0
2023/01/25 22:00:00,52.5,-3.8
2023/01/25 22:10:00,52.3,-4.3
2023/01/25 22:20:00,52.2,-4.9
2023/01/25 22:30:00,52.1,-5.5
2023/01/25 22:40:00,52.0,-6.0
2023/01/25 22:50:00,51.5,-6.2
2023/01/25 23:00:00,51.2,-6.6
2023/01/25 23:10:00,50.9,-7.4
2023/01/25 23:20:00,50.8,-7.1
2023/01/25 23:30:00,50.6,-7.4
2023/01/25 23:40:00,50.6,-7.9
2023/01/25 23:50:00,50.5,-8.0
